sat.trackr.live / text

‹ back to catalog

STARLINK-31248

NORAD 58840 · 2024-017Q

PAYLOAD ACTIVE UNKNOWN

§ Identity

Operator
Country
US
Launch date
2024-01-24
Launch site
AFWTR
Launch vehicle
Mass (kg)
RCS (m²)

Purposes: comms

External: N2YO · Heavens-Above · Gunter

§ Orbital elements

Epoch: 2026-09-20T20:51:01.747008Z

Period
93.84 min
Inclination
53.1620°
Eccentricity
0.0000974
Mean motion
15.34445707 rev/d
Perigee alt
461.9 km
Apogee alt
463.2 km
Semi-major
6,840.7 km
B*
-2.7985e-4
RAAN
25.9129°
Arg perigee
108.9096°
Mean anomaly
251.2012°
Rev number
14,993

§ Raw data

STARLINK-312481 58840U 24017Q   26263.86877022 -.00009833  00000+0 -27985-3 0  99962 58840  53.1620  25.9129 0000974 108.9096 251.2012 15.34445707149934

JSON: /api/v1/satellites/58840 · /tle

For live sub-satellite position, see the globe view (requires WebGL).

§ Visibility from observer

Set your observer location to see the next 7 days of passes ≥ 10°. The values pass through the URL so the page stays shareable.

No JS? Fill the form by hand. The geolocation button needs JavaScript.